QFA464 YMML-YSSY

Flight info

Callsign QFA464
Flight time N/A
Altitude 35000
Route DOSEL2/34 DOSEL Y59 RIVET
Aircraft A21N/M-SADE2E3GHIJ3J4J5LM1ORWYZ/LB1D1

Departure

Time 2026-05-04 07:24
Airport Melbourne Airport (YMML)

Arrival

Time N/A
Airport Sydney Kingsford Smith International Airport (YSSY)
Time Latitude Longitude Altitude Speed Heading
2026-05-04 06:46 -37.66764 144.85019 405 ft 0 kts 262°
2026-05-04 07:08 -37.66770 144.85087 401 ft 0 kts 349°
2026-05-04 07:09 -37.66775 144.85088 404 ft 0 kts
2026-05-04 07:13 -37.66774 144.85088 404 ft 1 kts
2026-05-04 07:14 -37.66533 144.84979 411 ft 14 kts 263°
2026-05-04 07:14 -37.66555 144.84843 411 ft 17 kts 236°
2026-05-04 07:15 -37.66636 144.84742 405 ft 17 kts 253°
2026-05-04 07:15 -37.66654 144.84591 405 ft 18 kts 260°
2026-05-04 07:15 -37.66675 144.84433 403 ft 19 kts 261°
2026-05-04 07:15 -37.66693 144.84271 402 ft 13 kts 262°
2026-05-04 07:16 -37.66747 144.84187 399 ft 14 kts 186°
2026-05-04 07:16 -37.66854 144.84204 395 ft 16 kts 172°
2026-05-04 07:16 -37.66973 144.84225 392 ft 18 kts 171°
2026-05-04 07:16 -37.67100 144.84251 389 ft 19 kts 171°
2026-05-04 07:17 -37.67234 144.84276 386 ft 20 kts 172°
2026-05-04 07:17 -37.67377 144.84302 384 ft 21 kts 172°
2026-05-04 07:17 -37.67528 144.84330 380 ft 22 kts 171°
2026-05-04 07:17 -37.67652 144.84353 376 ft 13 kts 172°
2026-05-04 07:18 -37.67748 144.84369 372 ft 15 kts 180°
2026-05-04 07:18 -37.67842 144.84318 367 ft 16 kts 239°
2026-05-04 07:18 -37.67864 144.84190 365 ft 10 kts 261°
2026-05-04 07:18 -37.67871 144.84133 368 ft 6 kts 262°
2026-05-04 07:19 -37.67873 144.84117 363 ft 0 kts 263°
2026-05-04 07:23 -37.67875 144.84093 365 ft 6 kts 263°
2026-05-04 07:23 -37.67880 144.83990 361 ft 10 kts 296°
2026-05-04 07:23 -37.67807 144.83956 365 ft 13 kts 352°
2026-05-04 07:23 -37.67576 144.83913 370 ft 67 kts 351°
2026-05-04 07:24 -37.66891 144.83783 396 ft 128 kts 352°
2026-05-04 07:24 -37.65909 144.83599 718 ft 144 kts 354°
2026-05-04 07:24 -37.64950 144.83415 1477 ft 139 kts 351°
2026-05-04 07:24 -37.63987 144.83224 2101 ft 144 kts 349°
2026-05-04 07:25 -37.62931 144.83023 2556 ft 163 kts 347°
2026-05-04 07:26 -37.52372 144.86368 7736 ft 267 kts 19°
2026-05-04 07:27 -37.50680 144.87405 8602 ft 272 kts 19°
2026-05-04 07:27 -37.48958 144.88456 9466 ft 278 kts 19°
2026-05-04 07:27 -37.47199 144.89527 10216 ft 287 kts 19°
2026-05-04 07:27 -37.45365 144.90639 10584 ft 308 kts 20°